When you browse on this site, cookies collect data to enhance your experience and personalize the content and advertising you see.
Visit our Privacy Policy to learn more. By continuing to use the site, you agree to this use of cookies and data.
  • In Romania
  • List of Countries
  • For 7 days
  • Water Temperature
  • Satellite Maps
  • Weather Map
  • Weather Widgets
  • user-avatar
    Login

    Hourly Weather Bihać

    Today, 24 May, Friday

    Time Temperature Precipitation Wind Pressure Humidity
    00:00 +10°C° 0 mm 2 mps 709 mmHg 92%
    01:00 +10°C° 0 mm 2 mps 709 mmHg 92%
    02:00 +10°C° 0 mm 2 mps 709 mmHg 93%
    03:00 +10°C° 0 mm 2 mps 709 mmHg 93%
    04:00 +9°C° 0 mm 2 mps 709 mmHg 94%
    05:00 +12°C° 0 mm 2 mps 709 mmHg 90%
    06:00 +13°C° 0 mm 2 mps 709 mmHg 86%
    07:00 +14°C° 0 mm 2 mps 709 mmHg 83%
    08:00 +16°C° 0 mm 2 mps 709 mmHg 73%
    09:00 +18°C° 0 mm 1 mps 710 mmHg 64%
    10:00 +20°C° 0 mm 1 mps 710 mmHg 54%
    11:00 +21°C° 0.1 mm 1 mps 710 mmHg 54%
    12:00 +20°C° 0.1 mm 2 mps 710 mmHg 54%
    13:00 +21°C° 0.1 mm 2 mps 709 mmHg 55%
    14:00 +20°C° 0.1 mm 2 mps 709 mmHg 56%
    15:00 +20°C° 0.1 mm 2 mps 709 mmHg 57%
    16:00 +20°C° 0.1 mm 2 mps 708 mmHg 58%
    17:00 +18°C° 0 mm 2 mps 708 mmHg 65%
    18:00 +18°C° 0 mm 1 mps 708 mmHg 71%
    19:00 +16°C° 0 mm 1 mps 708 mmHg 78%
    20:00 +15°C° 0 mm 1 mps 708 mmHg 79%
    21:00 +14°C° 0 mm 1 mps 708 mmHg 81%
    22:00 +13°C° 0 mm 1 mps 708 mmHg 82%
    23:00 +12°C° 0 mm 1 mps 708 mmHg 82%

    Tomorrow, 25 May, Saturday

    Time Temperature Precipitation Wind Pressure Humidity
    00:00 +12°C° 0 mm 1 mps 708 mmHg 81%
    01:00 +12°C° 0 mm 1 mps 708 mmHg 81%
    02:00 +11°C° 0 mm 1 mps 708 mmHg 80%
    03:00 +11°C° 0 mm 1 mps 708 mmHg 79%
    04:00 +11°C° 0 mm 1 mps 708 mmHg 78%
    05:00 +13°C° 0 mm 1 mps 708 mmHg 74%
    06:00 +15°C° 0 mm 1 mps 708 mmHg 70%
    07:00 +18°C° 0 mm 1 mps 709 mmHg 65%
    08:00 +19°C° 0 mm 1 mps 709 mmHg 62%
    09:00 +20°C° 0 mm 1 mps 710 mmHg 58%
    10:00 +21°C° 0 mm 2 mps 710 mmHg 55%
    11:00 +21°C° 0.2 mm 2 mps 710 mmHg 57%
    12:00 +21°C° 0.2 mm 2 mps 710 mmHg 60%
    13:00 +21°C° 0.2 mm 2 mps 710 mmHg 63%
    14:00 +21°C° 0.5 mm 2 mps 709 mmHg 67%
    15:00 +20°C° 0.5 mm 2 mps 709 mmHg 71%
    16:00 +20°C° 0.5 mm 2 mps 709 mmHg 75%
    17:00 +19°C° 0.2 mm 1 mps 708 mmHg 80%
    18:00 +18°C° 0.2 mm 1 mps 708 mmHg 85%
    19:00 +15°C° 0.2 mm 1 mps 708 mmHg 90%
    20:00 +15°C° 0 mm 1 mps 708 mmHg 91%
    21:00 +14°C° 0 mm 1 mps 708 mmHg 92%
    22:00 +13°C° 0 mm 1 mps 709 mmHg 93%
    23:00 +13°C° 0 mm 1 mps 708 mmHg 94%

    Day after tomorrow, 26 May, Sunday

    Time Temperature Precipitation Wind Pressure Humidity
    00:00 +13°C° 0 mm 1 mps 708 mmHg 94%
    01:00 +13°C° 0 mm 1 mps 708 mmHg 95%
    02:00 +13°C° 0 mm 1 mps 708 mmHg 94%
    03:00 +13°C° 0 mm 1 mps 708 mmHg 94%
    04:00 +13°C° 0 mm 1 mps 708 mmHg 93%
    05:00 +14°C° 0 mm 1 mps 708 mmHg 88%
    06:00 +15°C° 0 mm 1 mps 708 mmHg 82%
    07:00 +16°C° 0 mm 1 mps 708 mmHg 77%
    08:00 +18°C° 0 mm 2 mps 709 mmHg 70%
    09:00 +19°C° 0 mm 2 mps 709 mmHg 63%
    10:00 +20°C° 0 mm 2 mps 709 mmHg 57%
    11:00 +19°C° 0.1 mm 2 mps 709 mmHg 63%
    12:00 +19°C° 0.1 mm 2 mps 709 mmHg 70%
    13:00 +18°C° 0.1 mm 3 mps 709 mmHg 77%
    14:00 +18°C° 0 mm 3 mps 709 mmHg 76%
    15:00 +18°C° 0 mm 2 mps 709 mmHg 75%
    16:00 +17°C° 0 mm 2 mps 709 mmHg 74%
    17:00 +17°C° 0 mm 2 mps 708 mmHg 76%
    18:00 +16°C° 0 mm 1 mps 708 mmHg 79%
    19:00 +15°C° 0 mm 1 mps 708 mmHg 82%
    20:00 +15°C° 0 mm 1 mps 708 mmHg 83%
    21:00 +14°C° 0 mm 1 mps 708 mmHg 84%
    22:00 +14°C° 0 mm 1 mps 708 mmHg 85%
    23:00 +13°C° 0.2 mm 1 mps 708 mmHg 86%

    27 May, Monday

    Time Temperature Precipitation Wind Pressure Humidity
    00:00 +13°C° 0.2 mm 1 mps 708 mmHg 87%
    01:00 +13°C° 0.2 mm 1 mps 708 mmHg 88%
    02:00 +13°C° 0.1 mm 1 mps 707 mmHg 89%
    03:00 +13°C° 0.1 mm 1 mps 707 mmHg 89%
    04:00 +12°C° 0.1 mm 1 mps 707 mmHg 90%
    05:00 +14°C° 0 mm 1 mps 707 mmHg 88%
    06:00 +15°C° 0 mm 1 mps 707 mmHg 86%
    07:00 +16°C° 0 mm 1 mps 707 mmHg 83%
    08:00 +17°C° 0 mm 2 mps 707 mmHg 77%
    09:00 +18°C° 0 mm 2 mps 707 mmHg 71%
    10:00 +19°C° 0 mm 2 mps 708 mmHg 65%
    11:00 +18°C° 0.9 mm 2 mps 707 mmHg 74%
    12:00 +16°C° 0.9 mm 2 mps 707 mmHg 83%
    13:00 +14°C° 0.9 mm 2 mps 707 mmHg 92%
    14:00 +16°C° 0.1 mm 3 mps 707 mmHg 87%
    15:00 +17°C° 0.1 mm 3 mps 706 mmHg 83%
    16:00 +18°C° 0.1 mm 3 mps 706 mmHg 78%
    17:00 +17°C° 0.2 mm 3 mps 706 mmHg 81%
    18:00 +16°C° 0.2 mm 2 mps 705 mmHg 85%
    19:00 +15°C° 0.2 mm 1 mps 705 mmHg 88%
    20:00 +15°C° 0.1 mm 1 mps 705 mmHg 89%
    21:00 +15°C° 0.1 mm 1 mps 704 mmHg 89%
    22:00 +15°C° 0.1 mm 2 mps 704 mmHg 89%
    23:00 +14°C° 0 mm 2 mps 704 mmHg 90%

    28 May, Tuesday

    Time Temperature Precipitation Wind Pressure Humidity
    00:00 +14°C° 0 mm 2 mps 703 mmHg 91%
    01:00 +14°C° 0 mm 2 mps 703 mmHg 91%
    02:00 +14°C° 0.3 mm 2 mps 703 mmHg 92%
    03:00 +13°C° 0.3 mm 2 mps 702 mmHg 93%
    04:00 +13°C° 0.3 mm 2 mps 702 mmHg 94%
    05:00 +13°C° 1 mm 2 mps 702 mmHg 95%
    06:00 +14°C° 1 mm 2 mps 702 mmHg 95%
    07:00 +13°C° 1 mm 3 mps 702 mmHg 95%
    08:00 +14°C° 0.6 mm 3 mps 702 mmHg 92%
    09:00 +15°C° 0.6 mm 4 mps 702 mmHg 89%
    10:00 +16°C° 0.6 mm 5 mps 702 mmHg 87%
    11:00 +16°C° 0.4 mm 5 mps 702 mmHg 87%
    12:00 +16°C° 0.4 mm 5 mps 702 mmHg 87%
    13:00 +16°C° 0.4 mm 5 mps 702 mmHg 87%
    14:00 +16°C° 0.3 mm 5 mps 702 mmHg 86%
    15:00 +17°C° 0.3 mm 4 mps 702 mmHg 86%
    16:00 +17°C° 0.3 mm 4 mps 702 mmHg 86%
    17:00 +15°C° 0.2 mm 4 mps 702 mmHg 88%
    18:00 +15°C° 0.2 mm 4 mps 702 mmHg 90%
    19:00 +14°C° 0.2 mm 3 mps 703 mmHg 92%
    20:00 +14°C° 0 mm 3 mps 703 mmHg 93%
    21:00 +13°C° 0 mm 3 mps 703 mmHg 94%
    22:00 +13°C° 0 mm 3 mps 704 mmHg 95%
    23:00 +13°C° 0.1 mm 3 mps 704 mmHg 95%

    29 May, Wednesday

    Time Temperature Precipitation Wind Pressure Humidity
    00:00 +13°C° 0.1 mm 3 mps 704 mmHg 95%
    01:00 +13°C° 0.1 mm 3 mps 704 mmHg 95%
    02:00 +13°C° 0.1 mm 3 mps 704 mmHg 95%
    03:00 +13°C° 0.1 mm 3 mps 705 mmHg 95%
    04:00 +13°C° 0.1 mm 3 mps 705 mmHg 96%
    05:00 +13°C° 0.1 mm 3 mps 705 mmHg 94%
    06:00 +13°C° 0.1 mm 3 mps 706 mmHg 93%
    07:00 +14°C° 0.1 mm 3 mps 706 mmHg 92%
    08:00 +14°C° 0.3 mm 4 mps 706 mmHg 90%
    09:00 +15°C° 0.3 mm 4 mps 707 mmHg 89%
    10:00 +17°C° 0.3 mm 4 mps 707 mmHg 87%
    11:00 +17°C° 0.6 mm 4 mps 707 mmHg 86%
    12:00 +18°C° 0.6 mm 4 mps 708 mmHg 84%
    13:00 +18°C° 0.6 mm 4 mps 708 mmHg 83%
    14:00 +18°C° 0.3 mm 4 mps 708 mmHg 81%
    15:00 +18°C° 0.3 mm 4 mps 708 mmHg 79%
    16:00 +18°C° 0.3 mm 3 mps 708 mmHg 76%
    17:00 +17°C° 0.3 mm 2 mps 708 mmHg 82%
    18:00 +16°C° 0.3 mm 2 mps 708 mmHg 87%
    19:00 +15°C° 0.3 mm 1 mps 708 mmHg 93%
    20:00 +15°C° 0.7 mm 1 mps 708 mmHg 93%
    21:00 +15°C° 0.7 mm 2 mps 708 mmHg 93%
    22:00 +13°C° 0.7 mm 3 mps 709 mmHg 93%
    23:00 +13°C° 0.9 mm 3 mps 708 mmHg 93%
    Show more